Location: Walton
(43.6794°N, 81.3017°W)
Time: 19:08:06
(UTC+00:00)

BREEZE-M DEB (TANK) - Pass Details

Date: 21 March 2026
Orbit: 322 x 14399 km, 49.6° (Epoch: 16 April)

Event Time Altitude Azimuth Distance (km) Brightness Sun altitude
Rises 00:29:22 0° 285° (WNW) 7,583 11.1 -10.1°
Reaches altitude 10° 00:36:35 10° 290° (WNW) 4,691 9.2 -11.4°
Maximum altitude 00:45:48 53° 6° (N) 939 4.2 -13.0°
Enters shadow 00:48:07 20° 79° (E) 1,304 4.4 -13.4°
